Location: Peterborough
(44.3091°N, 78.3197°W)
Time: 03:51:18
(UTC-04:00)

Tiros 1 despin weight - Pass Details

Date: 28 March 2023
Orbit: 586 x 632 km, 48.2° (Epoch: 08 June)

Event Time Altitude Azimuth Distance (km) Brightness Sun altitude
Rises 01:43:29 0° 291° (WNW) 2,828 - -42.5°
Reaches altitude 10° 01:45:46 10° 292° (WNW) 1,931 - -42.4°
Maximum altitude 01:50:12 89° 23° (NNE) 606 - -42.3°
Drops below altitude 10° 01:54:42 10° 113° (ESE) 1,955 - -42.1°
Sets 01:57:01 0° 113° (ESE) 2,865 - -42.0°
